Weather Service Report


392 
ASUS43 KMPX 031810
RWRMN 
WEATHER ROUNDUP FOR MINNESOTA
NATIONAL WEATHER SERVICE TWIN CITIES/CHANHASSEN MN
100 PM CDT SUN MAY 03 2015


NOTE: "FAIR" INDICATES FEW OR NO CLOUDS BELOW 12,000 FEET WITH NO
SIGNIFICANT WEATHER AND/OR OBSTRUCTIONS TO VISIBILITY. N/A MEANS
CURRENT SKY AND/OR WEATHER CONDITIONS ARE NOT AVAILABLE.

MNZ060>063-068>070-031900-
   Twin Cities Metro   
  
CITY           SKY/WX    TMP DP  RH WIND       PRES   REMARKS
TWIN CITIES    MOSUNNY   76  55  48 VRB3      29.78F                  
6HR MIN TEMP:  57; 6HR MAX TEMP:  76;                                

ST PAUL        SUNNY     77  55  46 MISG      29.79S                  
CRYSTAL        MOSUNNY   77  54  44 W5        29.78S                  
BLAINE         MOSUNNY   75  55  50 S5        29.80R                  
LAKEVILLE      SUNNY     75  55  50 W8        29.78S                  
EDEN PRAIRIE   MOSUNNY   77  56  48 MISG      29.78R                  
6HR MIN TEMP:  56; 6HR MAX TEMP:  77;                                

SOUTH ST PAUL  SUNNY     77  53  43 S5        29.78S                  
LAKE ELMO      FAIR      75  55  50 S7        29.80F                  
$$
MNZ001>005-007-008-013>017-022>024-027-028-031900-
   Northwest Minnesota   
  
CITY           SKY/WX    TMP DP  RH WIND       PRES   REMARKS
BEMIDJI        CLOUDY    60  35  39 NW16      29.87R                  
HALLOCK        PTSUNNY   64  19  17 NW25G35   29.87S                  
ROSEAU         PTSUNNY   63  34  34 NW16      29.85S                  
WARROAD        PTSUNNY   63  39  42 W17G23    29.85R                  
THIEF RVR FALL CLOUDY    61  34  36 NW18      29.89F                  
CROOKSTON      CLOUDY    61  34  36 NW16      29.91S                  
DETROIT LAKES  PTSUNNY   64  36  34 N10G24    29.90S                  
MOORHEAD       PTSUNNY   64  30  27 N18G26    29.91R                  
PARK RAPIDS    CLOUDY    64  34  32 NW15      29.88R                  
MAHNOMEN       FAIR      61  33  34 N22       29.90R                  
$$
MNZ006-009>011-018-025>026-031900-
   North Central Minnesota   
  
CITY           SKY/WX    TMP DP  RH WIND       PRES   REMARKS
BAUDETTE       PTSUNNY   62  36  37 W21G26    29.83R                  
FLAG ISLAND    MOSUNNY   57  36  44 W22       29.80S                  
INTL FALLS     PTSUNNY   64  34  32 NW17G24   29.82R                  
6HR MIN TEMP:  49; 6HR MAX TEMP:  67;                                

WASKISH        CLOUDY    64  43  45 W12       29.85S                  
BIG FORK       PTSUNNY   64  34  32 NW8G20    29.84R                  
LONGVILLE      PTSUNNY   68  36  30 W15       29.86R                  
GRAND RAPIDS   MOSUNNY   72  36  26 NW16G23   29.83R                  
CRANE LAKE     MOSUNNY   66  32  28 NW12G22   29.81R                  
COOK           PTSUNNY   70  34  26 W21       29.80R                  
WALKER         FAIR      63  35  34 NW8G17    29.87R                  
$$
MNZ012-019>021-037-031900-
   Northeast Minnesota   
  
CITY           SKY/WX    TMP DP  RH WIND       PRES   REMARKS
DULUTH         PTSUNNY   74  45  35 W8        29.78R                  
6HR MIN TEMP:  62; 6HR MAX TEMP:  76;                                

ELY            MOSUNNY   72  32  23 W15G24    29.76R                  
HIBBING        MOSUNNY   77  29  17 NW21G26   29.79R                  
EVELETH        MOSUNNY   75  30  19 W16       29.79R                  
DULUTH HARBOR  PTSUNNY   75  52  43 CALM      29.75S                  
TWO HARBORS    PTSUNNY   81  52  36 W5        29.73S                  
SILVER BAY     PTSUNNY   79  41  25 SW8       29.72S                  
GRAND MARAIS     N/A     45  39  79 SW12      29.74R                  
G MARAIS ARPRT MOSUNNY   73  30  20 NW9G21    29.76R                  
$$
MNZ029>031-032-039>041-046>048-054>057-064-031900-
   West Central Minnesota   
  
CITY           SKY/WX    TMP DP  RH WIND       PRES   REMARKS
FERGUS FALLS   PTSUNNY   66  37  34 N15G24    29.88R                  
WHEATON        MOSUNNY   66  39  37 NW28      29.90R                  
MORRIS         PTSUNNY   73  39  29 N21G26    29.84R                  
ALEXANDRIA     PTSUNNY   69  45  41 N17G23    29.86R                  
ELBOW LAKE     FAIR      67  40  37 N20       29.86S                  
WADENA         CLOUDY    66  39  37 N15G24    29.86R                  
GLENWOOD       MOSUNNY   70  46  43 N15G22    29.84R                  
APPLETON       MOSUNNY   75  39  27 N25G33    29.82R                  
BENSON         SUNNY     73  37  27 NE22G31   29.82R                  
ORTONVILLE     MOSUNNY   70  39  32 N30G36    29.86R                  
MADISON        MOSUNNY   73  43  33 N25G35    29.82S                  
WILLMAR        FAIR      73  55  53 NE12G18   29.81S                  
$$
MNZ033>034-036-042>043-049>051-058-059-031900-
   Central Minnesota     
  
CITY           SKY/WX    TMP DP  RH WIND       PRES   REMARKS
ST CLOUD       MOSUNNY   66  57  72 CALM      29.81R                  
6HR MIN TEMP:  57; 6HR MAX TEMP:  67; 6HR PCP:  0.02;                

SAUK CENTRE    MOCLDY    71  43  36 N18G26    29.82S                  
PAYNESVILLE    SUNNY     69  57  65 NW10G17   29.81S                  
AITKIN         MIX PCPN  72  30  21 W5        29.80S                  
PINE RIVER     CLOUDY    72  39  30 NW10G17   29.87R                  
BRAINERD       LGT RAIN  60  54  80 SW3       29.83R                  
STAPLES        CLOUDY    70  37  30 NW13G21   29.84R                  
LONG PRAIRIE   PTSUNNY   70  43  37 NW8G18    29.84S                  
LITTLE FALLS   PTSUNNY   73  46  38 N9        29.82R                  
LITCHFIELD     SUNNY     73  57  56 NE7       29.80S                  
BUFFALO        MOSUNNY   71  55  55 W5        29.81S                  
MAPLE LAKE     MOSUNNY   72  58  62 NW6       29.82S                  
$$
MNZ037-044-045-052-053-031900-
   East Central Minnesota   
  
CITY           SKY/WX    TMP DP  RH WIND       PRES   REMARKS
PRINCETON      PTSUNNY   70  55  60 W3        29.81S                  
MORA           CLOUDY    70  54  56 SW6       29.82S                  
CAMBRIDGE      CLOUDY    72  55  56 CALM      29.79F                  
RUSH CITY      PTSUNNY   70  54  56 CALM      29.81S                  
MOOSE LAKE     CLOUDY    73  45  35 NW9       29.77S                  
HINCKLEY       FAIR      72  55  56 SW7       29.79F                  
CLOQUET        PTSUNNY   73  43  33 W12       29.79R                  
MCGREGOR       PTSUNNY   72  37  28 NW8G16    29.80F                  
$$
MNZ071>073-080-081-089-090-097-098-031900-
   Southwest Minnesota   
  
CITY           SKY/WX    TMP DP  RH WIND       PRES   REMARKS
MONTEVIDEO     CLOUDY    73  54  49 NE18G24   29.81R                  
GRANITE FALLS  MOSUNNY   75  56  51 N12       29.81S                  
CANBY          CLOUDY    71  49  46 N21G31    29.83R                  
MARSHALL       PTSUNNY   73  52  46 N14G21    29.80S                  
REDWOOD FALLS  SUNNY     77  56  48 NW8       29.77R                  
OLIVIA         SUNNY     72  52  49 NW5       29.77F                  
PIPESTONE      SUNNY     77  52  41 VRB7G16   29.79S                  
WINDOM         SUNNY     81  50  34 CALM      29.78S                  
WORTHINGTON    SUNNY     79  54  41 S3        29.79S                  
JACKSON        SUNNY     81  48  32 SW5       29.79S                  
TRACY          SUNNY     78  55  44 N12G18    29.79R                  
SLAYTON        SUNNY     78  50  38 CALM      29.80S                  
$$
MNZ065>067-074>077-082>085-091>093-031900-
   South Central Minnesota  
  
CITY           SKY/WX    TMP DP  RH WIND       PRES   REMARKS
MANKATO        SUNNY     81  52  36 SW8G16    29.77F                  
NEW ULM        SUNNY     79  52  38 CALM      29.76S                  
ST JAMES       MOSUNNY   82  48  30 W12       29.77S                  
FAIRMONT       MOSUNNY   81  52  36 SW8       29.78F                  
GLENCOE        SUNNY     79  57  47 SW6       29.77F                  
FARIBAULT      SUNNY     79  52  38 SW9       29.79S                  
OWATONNA       SUNNY     81  48  32 W10G16    29.79F                  
WASECA         SUNNY     79  50  36 SW12      29.80S                  
ALBERT LEA     SUNNY     79  50  36 S7        29.79F                  
$$
MNZ078>079-086>088-094>096-031900-
   Southeast Minnesota   
  
CITY           SKY/WX    TMP DP  RH WIND       PRES   REMARKS
ROCHESTER      SUNNY     80  50  34 SW15G21   29.81F                  
6HR MIN TEMP:  53; 6HR MAX TEMP:  80;                                

RED WING       SUNNY     75  54  46 SE6       29.78S                  
STANTON        SUNNY     80  53  38 SW7       29.77F                  
DODGE CENTER   SUNNY     79  52  38 SW10      29.81R                  
WINONA         SUNNY     77  54  44 SW7       29.80F                  
AUSTIN         SUNNY     77  54  44 SW14      29.80F                  
PRESTON        MOSUNNY   76  52  43 SW7       29.82S                  
$$
ABBREVIATIONS USED IN REMARKS
   TC - TEMPERATURES IN CELSIUS
  WCI - WIND CHILL INDEX
   HX - HEAT INDEX
  VSB - VISIBILITY 
$$

Return to Home page


Western Regional Climate Center, wrcc@dri.edu